TimePDT,TemperatureF,Dew PointF,Humidity,Sea Level PressureIn,VisibilityMPH,Wind Direction,Wind SpeedMPH,Gust SpeedMPH,PrecipitationIn,Events,Conditions,WindDirDegrees,DateUTC
12:53 AM,39.0,39.0,100,30.25,10.0,Calm,Calm,-,N/A,,Clear,0,2013-04-09 07:53:00
1:53 AM,37.9,37.9,100,30.26,9.0,East,3.5,-,N/A,,Clear,100,2013-04-09 08:53:00
2:53 AM,37.0,37.0,100,30.25,10.0,Calm,Calm,-,N/A,,Clear,0,2013-04-09 09:53:00
3:53 AM,37.9,37.9,100,30.25,10.0,Calm,Calm,-,N/A,,Overcast,0,2013-04-09 10:53:00
4:53 AM,37.9,37.9,100,30.26,10.0,East,3.5,-,N/A,,Overcast,100,2013-04-09 11:53:00
5:53 AM,36.0,36.0,100,30.27,10.0,Calm,Calm,-,N/A,,Clear,0,2013-04-09 12:53:00
6:53 AM,35.1,35.1,100,30.28,8.0,East,3.5,-,N/A,,Clear,90,2013-04-09 13:53:00
7:53 AM,41.0,39.9,96,30.29,10.0,ESE,3.5,-,N/A,,Mostly Cloudy,110,2013-04-09 14:53:00
8:53 AM,46.9,42.1,83,30.30,10.0,Calm,Calm,-,N/A,,Clear,0,2013-04-09 15:53:00
9:39 AM,48.2,44.6,87,30.28,6.0,WNW,5.8,-,N/A,,Haze,300,2013-04-09 16:39:00
9:53 AM,48.9,44.1,83,30.30,9.0,WNW,3.5,-,N/A,,Mostly Cloudy,300,2013-04-09 16:53:00
10:53 AM,51.1,44.1,77,30.30,10.0,Variable,4.6,-,N/A,,Clear,0,2013-04-09 17:53:00
11:53 AM,52.0,45.0,77,30.31,10.0,NW,13.8,-,N/A,,Clear,320,2013-04-09 18:53:00
12:53 PM,53.1,46.0,77,30.28,10.0,NW,12.7,-,N/A,,Clear,320,2013-04-09 19:53:00
1:53 PM,53.1,48.0,83,30.27,10.0,NNW,17.3,24.2,N/A,,Clear,330,2013-04-09 20:53:00
2:53 PM,55.0,46.9,74,30.28,10.0,NNW,16.1,-,N/A,,Clear,330,2013-04-09 21:53:00
3:53 PM,55.0,46.9,74,30.29,10.0,NNW,16.1,24.2,N/A,,Clear,330,2013-04-09 22:53:00
4:53 PM,55.0,46.0,72,30.29,10.0,NNW,17.3,24.2,N/A,,Clear,330,2013-04-09 23:53:00
5:53 PM,55.0,44.1,67,30.28,10.0,NNW,13.8,-,N/A,,Clear,330,2013-04-10 00:53:00
6:53 PM,52.0,45.0,77,30.30,10.0,NNW,13.8,-,N/A,,Clear,330,2013-04-10 01:53:00
7:53 PM,48.9,46.0,90,30.29,7.0,NNW,9.2,-,N/A,,Clear,330,2013-04-10 02:53:00
8:53 PM,48.9,45.0,86,30.32,9.0,North,5.8,-,N/A,,Clear,360,2013-04-10 03:53:00
9:53 PM,44.1,43.0,96,30.33,10.0,SSE,3.5,-,N/A,,Clear,160,2013-04-10 04:53:00
10:53 PM,44.1,43.0,96,30.32,10.0,Calm,Calm,-,N/A,,Clear,0,2013-04-10 05:53:00
11:53 PM,43.0,42.1,97,30.32,10.0,Calm,Calm,-,N/A,,Clear,0,2013-04-10 06:53:00